Tracking 28794 objects as of 21-Apr-2024
HD Live streaming from Space Station
objects crossing your sky now

STARLINK-30568

Track STARLINK-30568 now!
10-day predictions
STARLINK-30568 is classified as:


NORAD ID: 58051
Int'l Code: 2023-158A
Perigee: 565.5 km
Apogee: 567.2 km
Inclination: 43.0 °
Period: 95.8 minutes
Semi major axis: 6937 km
RCS: Unknown
Launch date: October 13, 2023
Source: United States (US)
Launch site: AIR FORCE EASTERN TEST RANGE (AFETR)
Your satellite tracking list
Your tracking list is empty




NASA's NSSDC Master Catalog

Two Line Element Set (TLE):
1 58051U 23158A   24112.47926337  .00028438  00000-0  21137-2 0  9990
2 58051  43.0021 164.7296 0001235 278.0959  81.9743 15.02500720 29989
Source of the keplerian elements: AFSPC